{"data":{"norad_id":57644,"epoch":"2026-05-25T00:31:36.023808Z","epoch_age_seconds":66345,"freshness":"FRESH","line1":"1 57644U 23122N   26145.02194472  .00003712  00000+0  14436-3 0  9996","line2":"2 57644  43.0046  21.1951 0001407 272.3301  87.7390 15.27577006153883","mean_motion":15.27577006,"eccentricity":0.0001407,"inclination_deg":43.0046,"raan_deg":21.1951,"arg_perigee_deg":272.3301,"mean_anomaly_deg":87.739,"bstar":0.00014436,"rev_number":15388,"period_min":94.266933473336,"perigee_km":482.09269102228,"apogee_km":484.02343131249,"semimajor_km":6861.1950611674,"source":"CELESTRAK","updated_at":"2026-05-25T13:38:18.364664Z"}}